{"data":{"norad_id":59505,"epoch":"2026-09-20T12:01:22.740096Z","epoch_age_seconds":165115,"freshness":"FRESH","line1":"1 59505U 24071X   26263.50095764  .00000461  00000+0  26290-4 0  9996","line2":"2 59505  43.0022 320.0528 0001356 271.3680  88.7017 15.27578828137992","mean_motion":15.27578828,"eccentricity":0.0001356,"inclination_deg":43.0022,"raan_deg":320.0528,"arg_perigee_deg":271.368,"mean_anomaly_deg":88.7017,"bstar":2.629e-5,"rev_number":13799,"period_min":94.266821037664,"perigee_km":482.12222812102,"apogee_km":483.98298274202,"semimajor_km":6861.1896054315,"source":"CELESTRAK","updated_at":"2026-09-22T09:00:48.961603Z"}}